Location: Buchloe
(48.0161°N, 10.7316°E)
Time: 03:21:05
(UTC+02:00)

ISS - Pass Details

Date: 14 July 2025
Orbit: 413 x 417 km, 51.6° (Epoch: 12 July)

Event Time Altitude Azimuth Distance (km) Brightness Sun altitude
Rises 01:09:57 0° 292° (WNW) 2,355 0.4 -20.2°
Reaches altitude 10° 01:12:03 10° 293° (WNW) 1,491 -0.7 -20.3°
Enters shadow 01:15:19 82° 348° (NNW) 424 -3.8 -20.3°
